Regional Weather Roundup
Issued by NWS

Home | Current Version | Previous Version | Graphics & Text | Print | Product List | Glossary On
Versions: 1 2 3 4 5 6 7 8 9 10 11 12 13 14 15 16 17 18 19 20 21 22 23 24 25 26 27 28 29 30 31 32 33 34 35 36 37 38 39 40 41 42 43 44 45 46 47 48 49 50
000
ASUS43 KLMK 270702
RWRKY
KENTUCKY REGIONAL WEATHER ROUNDUP
NATIONAL WEATHER SERVICE LOUISVILLE KY
300 AM EDT TUE JUN 27 2017

NOTE "FAIR" INDICATES FEW OR NO CLOUDS BELOW 12,000 FEET
WITH NO SIGNIFICANT WEATHER AND/OR OBSTRUCTIONS TO VISIBILITY.

KYZ001>023-026-027-061>063-070>075-270800-
WESTERN AND SOUTH CENTRAL KENTUCKY

CITY           SKY/WX    TMP DP  RH WIND       PRES   REMARKS
PADUCAH        CLOUDY    63  59  87 CALM      30.10R
HENDERSON      PTCLDY    57  55  93 CALM      30.12S
OWENSBORO      CLOUDY    62  55  77 CALM      30.11F
HOPKINSVILLE   PTCLDY    62  57  84 NE3       30.08F
BOWLING GREEN  CLOUDY    63  58  83 CALM      30.10F
GLASGOW        NOT AVBL
$$

KYZ024-025-028>034-038-045-046-053-270800-
NORTH CENTRAL KENTUCKY

CITY           SKY/WX    TMP DP  RH WIND       PRES   REMARKS
LOUISVILLE/SDF LGT RAIN  61  57  87 NE5       30.11F
LOUISVILLE/LOU RAIN      60  57  89 VRB3      30.13F FOG
FORT KNOX      CLOUDY    60  50  71 NE3       30.10F
$$

KYZ035>037-039>044-047>052-055>060-089>105-270800-
NORTHEAST KENTUCKY

CITY           SKY/WX    TMP DP  RH WIND       PRES   REMARKS
LEXINGTON      PTCLDY    62  50  64 CALM      30.11F
COVINGTON      CLEAR     56  50  80 N6        30.10R
FRANKFORT      MOCLDY    60  51  72 CALM      30.09F
$$

KYZ054-064>069-076>088-106>120-270800-
SOUTHEAST KENTUCKY

CITY           SKY/WX    TMP DP  RH WIND       PRES   REMARKS
JACKSON        CLEAR     61  51  70 CALM      30.11F
LONDON         PTCLDY    58  54  86 CALM      30.12S
SOMERSET       PTCLDY    55  55 100 CALM      30.13S
MIDDLESBORO    PTCLDY    57  55  95 CALM      30.13F
MONTICELLO     MOSUNNY   57  55  93 NE8       30.14S
$$





USA.gov is the U.S. government's official web portal to all federal, state and local government web resources and services.